Regional Weather Roundup
Issued by NWS Midland/Odessa, TX

Home | Current Version | Previous Version | Text Only | Print | Product List | Glossary On
Versions: 1 2 3 4 5 6 7 8 9 10 11 12 13 14 15 16 17 18 19 20 21 22 23 24 25 26 27 28 29 30 31 32 33 34 35 36 37 38 39 40 41 42 43 44 45 46 47 48 49 50
000
ASUS44 KMAF 012110
RWRMAF
MIDLAND AREA WEATHER ROUNDUP
NATIONAL WEATHER SERVICE MIDLAND TX
400 PM CDT WED JUL 01 2015

...IN SOUTHWEST TEXAS AND SOUTHEAST NEW MEXICO...

CITY           SKY/WX    TMP DP  RH WIND       PRES   REMARKS
ALPINE         SUNNY     88  52  29 NW3G16    30.13F
ANDREWS        FAIR      89  62  40 S10G16    30.03F
ARTESIA        SUNNY     91  55  29 E10G20    30.00F
BIG SPRING     SUNNY     89  62  40 S12G22    30.04F
CARLSBAD       SUNNY     95  56  26 VRB7G17   29.97F
DRYDEN           N/A     91  65  41 SE9G22    29.98F
FORT STOCKTON  SUNNY     90  64  42 SE12G22   30.00F
GUAD PASS      SUNNY     88  52  29 SW14G22   30.16F
HOBBS          MOSUNNY   90  54  29 S7        30.04F
MARFA          MOSUNNY  N/A N/A N/A E10       30.13F
MIDLAND AIRPK  SUNNY     90  62  38 SE15G22   30.02F
MIDLAND INTL   MOSUNNY   89  63  41 SE20G26   30.02F
ODESSA         MOSUNNY   88  62  41 S17       30.03F
PECOS          SUNNY     96  53  23 E5        29.95F
PRESIDIO       MOCLDY    95  58  29 CALM      29.96F
SEMINOLE       MOSUNNY   91  58  32 SE12      30.04S
SNYDER         MOSUNNY   87  67  52 S15G21    30.02F
WINK           SUNNY     94  61  33 VRB7G22   29.97F
$$
...OTHER STATIONS IN TEXAS...

CITY           SKY/WX    TMP DP  RH WIND       PRES   REMARKS
ABILENE        MOSUNNY   90  65  43 S15G25    30.00F
AMARILLO       SUNNY     93  55  27 VRB5      29.99F
AUSTIN         CLOUDY    79  73  82 S16G25    30.04R
BROWNSVILLE    CLOUDY    82  68  62 S14       30.01F
CORPUS CHRISTI PTSUNNY   83  72  69 S13       30.02F
DALLAS FTW     PTSUNNY   93  68  43 S21       29.95F
DEL RIO        MOSUNNY   89  70  53 SE13G20   29.96F
EL PASO        MOSUNNY   94  45  18 S8        30.01F
HOUSTON INT    CLOUDY    84  76  76 CALM      30.04R
LUBBOCK        PTSUNNY   92  56  29 S13       30.02S
SAN ANGELO     MOSUNNY   89  66  46 S14G22    30.01F
SAN ANTONIO    PTSUNNY   80  71  74 S13       30.06F
WACO           MOSUNNY   91  70  49 S13       29.98F
WICHITA FALLS  NOT AVBL
$$
...OTHER LOCATIONS IN NEW MEXICO...

CITY           SKY/WX    TMP DP  RH WIND       PRES   REMARKS
ALAMAGORDO     MOSUNNY   91  46  21 SW6       30.03F
ALBUQUERQUE    PTSUNNY   92  46  20 W7        30.08F
CANNON AFB     MOSUNNY   92  47  21 W7        30.04F
CLOVIS         SUNNY     91  48  22 S5          N/A
HOLLOMAN AFB   MOSUNNY   94  43  17 SW14      30.00F
ROSWELL        SUNNY     95  51  22 VRB7      29.99F
RUIDOSO        SUNNY     82  45  26 SE5       30.25S
SANTA FE       MOSUNNY   88  41  19 SE5       30.15F
TRUTH OR CONSE SUNNY     93  45  19 SE10      30.05F
TUCUMCARI      MOSUNNY   97  48  18 VRB6      29.98F
$$


USA.gov is the U.S. government's official web portal to all federal, state and local government web resources and services.